Weather reports worldwide

Advertisment
L9F, Netherlands (6207): temperature & dewpoint: 22.01.2020 07:00:00 - 28.01.2020 07:00:00 (CET)L9F, Netherlands (6207): wind speed & gusts: 22.01.2020 07:00:00 - 28.01.2020 07:00:00 (CET)L9F, Netherlands (6207): wind direction: 22.01.2020 07:00:00 - 28.01.2020 07:00:00 (CET)L9F, Netherlands (6207): reduced air pressure: 22.01.2020 07:00:00 - 28.01.2020 07:00:00 (CET)L9F, Netherlands (6207): visibility: 22.01.2020 07:00:00 - 28.01.2020 07:00:00 (CET)
Date & Time tt [°C] td [°C] ff [km/h] ff [kn] fx [km/h] fx [kn] dd ppp [hPa] vv [km]
28.01.2020 07:00:00 6,9 4,1 31 17 36 19 WSW 986,3 10
28.01.2020 06:00:00 6,9 3,5 39 21 43 23 WSW 986,7 10
28.01.2020 05:00:00 7,0 3,4 41 22 43 23 WSW 987,1 10
28.01.2020 04:00:00 6,1 4,3 41 22 47 25 WSW 987,7 10
28.01.2020 03:00:00 5,6 3,6 50 27 54 29 WSW 987,6 10
28.01.2020 02:00:00 6,4 5,7 44 24 50 27 SSW 988,0 3,5
28.01.2020 01:00:00 6,7 5,3 50 27 54 29 S 989,6 10
28.01.2020 00:00:00 7,1 6,5 50 27 58 31 S 991,0 6
27.01.2020 23:00:00 7,4 6,6 50 27 54 29 - 992,5 8
27.01.2020 22:00:00 7,5 6,5 46 25 50 27 S 994,2 8
27.01.2020 21:00:00 7,3 6,7 39 21 40 21 S 995,9 10
27.01.2020 20:00:00 7,6 7,0 42 23 43 23 S 997,1 10
27.01.2020 19:00:00 7,7 7,2 46 25 43 23 SSW 998,4 6
27.01.2020 18:00:00 7,9 7,3 42 23 47 25 SSW 999,2 10
27.01.2020 17:00:00 7,9 7,1 41 22 47 25 SSW 1000,0 10
27.01.2020 16:00:00 8,0 7,1 52 28 50 27 SW 1000,4 10
27.01.2020 15:00:00 8,1 7,5 42 23 58 31 SW 1000,9 5
27.01.2020 14:00:00 8,1 7,6 48 26 50 27 SSW 1001,6 10
27.01.2020 13:00:00 8,4 7,6 46 25 47 25 SSW 1002,4 10
27.01.2020 12:00:00 8,5 7,5 44 24 47 25 SSW 1003,0 10
27.01.2020 11:00:00 8,6 7,6 46 25 47 25 SSW 1003,3 10
27.01.2020 10:00:00 8,3 7,7 37 20 43 23 SSW 1003,7 10
27.01.2020 09:00:00 8,5 6,6 39 21 43 23 SW 1003,9 10
27.01.2020 08:00:00 8,6 6,8 35 19 43 23 SW 1003,9 10
27.01.2020 07:00:00 8,7 6,3 37 20 43 23 SW 1003,9 10
27.01.2020 06:00:00 8,7 6,8 41 22 40 21 SW 1004,1 10
27.01.2020 05:00:00 8,8 7,1 46 25 54 29 WSW 1004,3 10
27.01.2020 04:00:00 8,6 7,9 55 30 65 35 SW 1004,3 8
27.01.2020 03:00:00 8,2 7,5 65 35 65 35 SSW 1004,7 6
27.01.2020 02:00:00 7,7 7,0 65 35 65 35 SSW 1005,6 5
27.01.2020 01:00:00 7,4 6,5 59 32 61 33 SSW 1006,5 8
27.01.2020 00:00:00 7,7 6,2 61 33 61 33 SSW 1007,3 9
26.01.2020 23:00:00 7,7 6,1 59 32 65 35 SSW 1008,0 9
26.01.2020 22:00:00 7,7 6,1 55 30 61 33 SSW 1008,9 9
26.01.2020 21:00:00 7,8 6,2 55 30 58 31 SSW 1009,4 9
26.01.2020 20:00:00 7,9 6,7 54 29 54 29 SSW 1010,0 7
26.01.2020 19:00:00 7,8 6,7 55 30 54 29 SSW 1010,4 6
26.01.2020 18:00:00 7,2 6,5 41 22 43 23 S 1010,6 5
26.01.2020 17:00:00 6,9 6,1 41 22 47 25 SSW 1011,3 4,6
26.01.2020 16:00:00 6,5 6,3 35 19 40 21 S 1011,4 3,4
26.01.2020 15:00:00 6,5 6,5 42 23 50 27 S 1011,8 2,8
26.01.2020 14:00:00 6,7 6,4 46 25 47 25 SSW 1012,3 2,8
26.01.2020 13:00:00 6,0 6,0 39 21 43 23 SSW 1012,9 2,7
26.01.2020 12:00:00 5,5 5,5 32 18 43 23 S 1013,7 2,5
26.01.2020 11:00:00 4,8 4,8 41 22 40 21 S 1014,4 1,6
26.01.2020 10:00:00 4,0 4,0 41 22 43 23 SSW 1014,8 1,0
26.01.2020 09:00:00 3,6 3,6 37 20 40 21 SSW 1015,0 0,4
26.01.2020 08:00:00 3,4 3,4 37 20 43 23 SSW 1015,0 0,5
26.01.2020 07:00:00 3,2 3,2 42 23 43 23 S 1015,3 0,5
26.01.2020 06:00:00 3,4 3,4 41 22 43 23 S 1015,2 0,4
26.01.2020 05:00:00 3,6 3,6 41 22 43 23 S 1015,8 0,6
26.01.2020 04:00:00 4,1 3,6 39 21 40 21 S 1016,2 5
26.01.2020 03:00:00 5,0 3,9 37 20 36 19 S 1016,8 9
26.01.2020 02:00:00 5,4 4,5 39 21 43 23 SSW 1017,1 6
26.01.2020 01:00:00 5,7 5,2 44 24 43 23 SSW 1017,6 4,4
26.01.2020 00:00:00 5,4 4,9 46 25 47 25 SSW 1018,0 3,2
25.01.2020 23:00:00 5,3 4,9 46 25 47 25 SSW 1018,3 2,5
25.01.2020 22:00:00 5,2 4,9 46 25 47 25 SSW 1018,7 2,7
25.01.2020 21:00:00 4,9 4,5 44 24 47 25 SSW 1019,0 3,8
25.01.2020 20:00:00 5,0 4,6 46 25 50 27 SSW 1019,0 3,4
25.01.2020 19:00:00 5,2 4,7 44 24 47 25 SSW 1019,0 4,1
25.01.2020 18:00:00 5,1 4,4 42 23 47 25 SSW 1018,9 4,4
25.01.2020 17:00:00 5,2 4,4 42 23 50 27 SSW 1018,9 3,4
25.01.2020 16:00:00 5,6 4,8 46 25 47 25 SSW 1018,9 3,6
25.01.2020 15:00:00 6,1 5,2 41 22 43 23 SSW 1019,4 4,1
25.01.2020 14:00:00 6,6 5,3 39 21 40 21 SSW 1019,7 5
25.01.2020 13:00:00 7,2 4,5 34 18 36 19 SSW 1020,0 6
25.01.2020 12:00:00 6,9 3,2 35 19 36 19 SW 1020,6 10
25.01.2020 11:00:00 7,1 4,0 29 16 36 19 SW 1020,1 10
25.01.2020 10:00:00 7,3 3,8 34 18 32 18 SW 1020,1 10
25.01.2020 09:00:00 7,7 4,4 22 12 25 14 WSW 1019,9 10
25.01.2020 08:00:00 7,7 4,9 18 10 22 12 WSW 1019,7 10
25.01.2020 07:00:00 7,2 5,3 21 11 22 12 WSW 1019,6 10
25.01.2020 06:00:00 7,0 5,5 16 9 18 10 WSW 1019,5 10
25.01.2020 05:00:00 7,0 4,9 21 11 29 16 WSW 1019,8 10
25.01.2020 04:00:00 7,3 4,4 22 12 25 14 WSW 1020,1 10
25.01.2020 03:00:00 7,2 4,6 18 10 22 12 WSW 1020,5 10
25.01.2020 02:00:00 7,3 4,4 21 11 22 12 W 1020,7 10
25.01.2020 01:00:00 7,4 4,4 24 13 25 14 WSW 1020,9 10
25.01.2020 00:00:00 7,5 4,5 22 12 22 12 WSW 1020,8 10
24.01.2020 23:00:00 7,4 4,2 21 11 22 12 WSW 1021,1 10
24.01.2020 22:00:00 7,4 4,2 18 10 18 10 WSW 1021,3 10
24.01.2020 21:00:00 7,4 4,4 18 10 22 12 WSW 1021,2 10
24.01.2020 20:00:00 7,1 4,2 18 10 25 14 W 1021,4 10
24.01.2020 19:00:00 7,1 4,8 22 12 25 14 WSW 1021,5 10
24.01.2020 18:00:00 6,9 4,7 22 12 25 14 WSW 1021,3 10
24.01.2020 17:00:00 7,2 4,9 26 14 25 14 W 1021,2 10
24.01.2020 16:00:00 6,9 5,7 24 13 25 14 W 1021,2 10
24.01.2020 15:00:00 6,9 5,9 26 14 29 16 WSW 1020,9 6
24.01.2020 14:00:00 7,1 5,5 26 14 25 14 WSW 1021,1 10
24.01.2020 13:00:00 7,2 5,5 22 12 22 12 WSW 1022,1 10
24.01.2020 12:00:00 7,2 6,2 22 12 22 12 WSW 1022,5 10
24.01.2020 11:00:00 7,1 5,9 18 10 29 16 - 1023,1 10
24.01.2020 10:00:00 7,1 5,2 21 11 25 14 WSW 1022,5 10
24.01.2020 09:00:00 6,4 5,6 22 12 25 14 W 1022,6 9
24.01.2020 08:00:00 6,3 5,7 24 13 25 14 W 1022,8 4,9
24.01.2020 07:00:00 6,5 4,9 28 15 32 18 WSW 1023,2 10
24.01.2020 06:00:00 6,4 5,4 24 13 25 14 WSW 1022,6 10
24.01.2020 05:00:00 6,2 5,0 24 13 25 14 WSW 1023,2 10
24.01.2020 04:00:00 6,2 5,4 18 10 18 10 W 1023,7 10
24.01.2020 03:00:00 6,3 5,9 16 9 18 10 WSW 1024,9 2,9
24.01.2020 02:00:00 6,4 6,0 16 9 18 10 WSW 1025,0 8
24.01.2020 01:00:00 6,7 5,6 15 8 18 10 WSW 1025,7 10
24.01.2020 00:00:00 6,6 5,4 11 6 14 8 W 1026,2 10
23.01.2020 23:00:00 6,4 6,1 15 8 18 10 WSW 1026,8 5
23.01.2020 22:00:00 6,5 6,0 18 10 22 12 WSW 1027,4 6
23.01.2020 21:00:00 6,4 5,9 18 10 22 12 WSW 1027,9 10
23.01.2020 20:00:00 6,7 6,0 16 9 22 12 WSW 1028,4 10
23.01.2020 19:00:00 7,0 6,4 18 10 25 14 SW 1028,4 10
23.01.2020 18:00:00 7,0 6,4 24 13 25 14 SSW 1028,7 10
23.01.2020 17:00:00 6,9 6,5 24 13 25 14 SSW 1029,2 9
23.01.2020 16:00:00 6,8 6,7 24 13 25 14 SW 1029,6 5
23.01.2020 15:00:00 6,9 6,9 21 11 22 12 SSW 1030,2 10
23.01.2020 14:00:00 6,8 6,8 21 11 22 12 SW 1031,2 5
23.01.2020 13:00:00 6,9 6,9 16 9 18 10 SSW 1032,3 4,4
23.01.2020 12:00:00 7,2 7,0 13 7 14 8 SW 1033,0 10
23.01.2020 11:00:00 7,2 6,4 9 5 11 6 SW 1033,5 10
23.01.2020 10:00:00 7,1 6,2 8 4 22 12 W 1033,8 10
23.01.2020 09:00:00 7,0 6,5 8 4 18 10 SW 1034,1 10
23.01.2020 08:00:00 6,8 6,8 11 6 18 10 SSW 1034,1 5
23.01.2020 07:00:00 6,7 6,6 15 8 14 8 S 1034,5 2,2
23.01.2020 06:00:00 6,7 6,6 11 6 14 8 SSW 1034,6 6
23.01.2020 05:00:00 6,8 6,5 8 4 11 6 WSW 1035,1 10
23.01.2020 04:00:00 6,7 6,7 8 4 18 10 WSW 1035,6 4,4
23.01.2020 03:00:00 6,8 6,2 8 4 18 10 - 1036,1 9
23.01.2020 02:00:00 6,8 5,6 8 4 18 10 WSW 1036,2 10
23.01.2020 01:00:00 6,7 5,7 8 4 14 8 W 1036,8 10
23.01.2020 00:00:00 6,9 5,7 2 1 22 12 - 1036,9 10
22.01.2020 23:00:00 7,1 5,5 2 1 22 12 - 1037,1 10
22.01.2020 22:00:00 7,3 5,7 5 3 22 12 - 1037,0 10
22.01.2020 21:00:00 7,4 5,8 9 5 11 6 N 1037,1 10
22.01.2020 20:00:00 7,4 6,6 13 7 11 6 N 1036,9 10
22.01.2020 19:00:00 7,8 6,9 13 7 14 8 N 1037,0 10
22.01.2020 18:00:00 7,8 7,7 16 9 14 8 NNE 1036,8 10
22.01.2020 17:00:00 7,8 7,8 13 7 14 8 NNW 1036,5 10
22.01.2020 16:00:00 7,8 7,8 15 8 25 14 NW 1036,3 5
22.01.2020 15:00:00 7,7 7,5 15 8 25 14 WNW 1036,3 10
22.01.2020 14:00:00 7,5 7,1 18 10 25 14 NW 1036,6 10
22.01.2020 13:00:00 7,3 6,6 16 9 25 14 WNW 1036,7 10
22.01.2020 12:00:00 7,6 6,8 16 9 22 12 WNW 1037,1 10
22.01.2020 11:00:00 7,7 6,8 16 9 22 12 NW 1037,0 10
22.01.2020 10:00:00 7,8 7,2 22 12 22 12 NNW 1037,0 10
22.01.2020 09:00:00 8,0 7,7 22 12 25 14 NW 1036,5 10
22.01.2020 08:00:00 7,9 7,8 28 15 32 18 NW 1036,0 10
22.01.2020 07:00:00 7,7 7,6 35 19 36 19 WNW 1035,7 2,4

tt = temperature
td = dewpoint
ff = wind speed
fx = gusts
dd = wind direction
ppp = reduced air pressure
vv = visibility

Next stations